Blythe, CA

2:16 PM PDT on June 28, 2017 (GMT -0700)
Blythe

Weather History for KBLH - September, 2012

Change the Weather History Date:

Sunday, September 30, 2012

  Actual Average Record
Temperature  
Mean Temperature 88 °F -  
Max Temperature 107 °F 95 °F 108 °F (1978)
Min Temperature 70 °F 66 °F 55 °F (1986)
Cooling Degree Days 23    
Growing Degree Days 38 (Base 50)    
Moisture  
Dew Point 40 °F    
Average Humidity 20    
Maximum Humidity 36    
Minimum Humidity 8    
Precipitation  
Precipitation 0.00 in - - ()
Sea Level Pressure  
Sea Level Pressure 29.85 in    
Wind  
Wind Speed 4 mph (West)    
Max Wind Speed 9 mph    
Max Gust Speed -    
Visibility 10 miles    
Events      
Averages and records for this station are not official NWS values.
T = Trace of Precipitation, MM = Missing Value Source: NWS Daily Summary

Daily Weather History Graph

Daily Weather History Graph

Search for Another Location

Airport or City:

Trip Planner

Search our weather history database for the weather conditions in past years. The results will help you decide how hot, cold, wet, or windy it might be!

Date:

Astronomy

Sep. 30, 2012 Rise Set
Actual Time 6:32 AM PDT 6:23 PM PDT
Civil Twilight 6:08 AM PDT 6:48 PM PDT
Nautical Twilight 5:39 AM PDT 7:17 PM PDT
Astronomical Twilight 5:10 AM PDT 7:46 PM PDT
Moon 6:35 PM PDT (9/30) 7:03 AM PDT (9/30)
Length of Visible Light 12h 40m
Length of Day
11h 50m
Full, 100% of the Moon is Illuminated
Sep 30
Full
Oct 8
Last Quarter
Oct 15
New
Oct 21
First Quarter
Oct 29
Full

Hourly Weather History & Observations

Time (PDT) Temp. Dew Point Humidity Pressure Visibility Wind Dir Wind Speed Gust Speed Precip Events Conditions
12:52 AM 80.1 °F 42.1 °F 26% 29.86 in 10.0 mi WSW 4.6 mph - N/A   Clear
1:52 AM 81.0 °F 45.0 °F 28% 29.86 in 10.0 mi West 5.8 mph - N/A   Clear
2:52 AM 77.0 °F 42.1 °F 29% 29.86 in 10.0 mi West 3.5 mph - N/A   Clear
3:52 AM 75.0 °F 41.0 °F 29% 29.87 in 10.0 mi North 4.6 mph - N/A   Clear
4:52 AM 73.9 °F 41.0 °F 30% 29.88 in 10.0 mi Calm Calm - N/A   Clear
5:52 AM 73.9 °F 42.1 °F 32% 29.88 in 10.0 mi Calm Calm - N/A   Clear
6:52 AM 70.0 °F 42.1 °F 36% 29.90 in 10.0 mi ENE 3.5 mph - N/A   Clear
7:52 AM 75.9 °F 46.0 °F 35% 29.92 in 10.0 mi Calm Calm - N/A   Clear
8:52 AM 82.0 °F 44.1 °F 26% 29.93 in 10.0 mi Calm Calm - N/A   Clear
9:52 AM 86.0 °F 46.0 °F 25% 29.93 in 10.0 mi SE 3.5 mph - N/A   Clear
10:52 AM 91.0 °F 48.0 °F 23% 29.92 in 10.0 mi Calm Calm - N/A   Clear
11:52 AM 95.0 °F 45.0 °F 18% 29.90 in 10.0 mi Calm Calm - N/A   Clear
12:52 PM 100.9 °F 39.9 °F 12% 29.88 in 10.0 mi Calm Calm - N/A   Clear
1:52 PM 102.9 °F 43.0 °F 13% 29.85 in 10.0 mi Variable 4.6 mph - N/A   Clear
2:52 PM 106.0 °F 32.0 °F 8% 29.83 in 10.0 mi WNW 9.2 mph - N/A   Clear
3:52 PM 106.0 °F 32.0 °F 8% 29.81 in 10.0 mi Variable 4.6 mph - N/A   Partly Cloudy
4:52 PM 105.1 °F 36.0 °F 9% 29.79 in 10.0 mi SSE 5.8 mph - N/A   Clear
5:52 PM 102.0 °F 42.1 °F 13% 29.78 in 10.0 mi SSE 6.9 mph - N/A   Clear
6:52 PM 97.0 °F 41.0 °F 14% 29.79 in 10.0 mi SW 4.6 mph - N/A   Clear
7:52 PM 91.9 °F 39.9 °F 16% 29.80 in 10.0 mi West 4.6 mph - N/A   Clear
8:52 PM 88.0 °F 35.1 °F 15% 29.81 in 10.0 mi North 5.8 mph - N/A   Clear
9:52 PM 88.0 °F 32.0 °F 14% 29.82 in 10.0 mi NW 5.8 mph - N/A   Clear
10:52 PM 87.1 °F 32.0 °F 14% 29.82 in 10.0 mi Calm Calm - N/A   Clear
11:52 PM 82.9 °F 33.1 °F 17% 29.81 in 10.0 mi West 5.8 mph - N/A   Clear